RADUGA 14 [-]

Last updated on Nov. 12, 2019, 4:19 a.m. UTC

1 14725U 84016A   19315.12340787 -.00000033  00000-0  00000+0 0  9995
2 14725  12.9988 331.3839 0002342  46.9004 143.7581  1.00293069 93913
UTC
Height (km)
Latitude
Longitude
Inclination
Orbital Period
UTC large
Height (km)
Speed (km/s)
/
Latitude / Longitude
Inclination (degrees)
Orbital Period (minutes)
Azimuth
Elevation
Range (km)
Doppler Factor
iOS Compass Heading
iOS Angle

Next 30 passes for location: Hong Kong

Rise time Rise Azimuth (degrees) Set time Set Azimuth (degrees) Duration Max altitude (degrees)

No matching passes for this satellites